Other Public Products
Issued by NWS Grand Forks, ND

Home | Current Version | Previous Version | Text Only | Print | Product List | Glossary Off
Versions: 1 2 3 4 5 6 7 8 9 10 11 12 13 14 15 16 17 18 19 20 21 22 23 24 25 26 27 28 29 30 31 32 33 34 35 36 37 38 39 40 41 42 43 44 45 46 47 48 49 50

000
FPUS83 KFGF 171410
OPUFGF
PRAIRIE TO PINES WEATHER ROUNDUP
NATIONAL WEATHER SERVICE EASTERN NORTH DAKOTA/GRAND FORKS ND
800 AM CST FRI NOV 17 2017

 **SATELLITE DATA USED TO AUGMENT SKY COVER AT AUTOMATED STATIONS**
 *****  WEATHER ACROSS EASTERN NORTH DAKOTA  *****

CITY           SKY/WX    TMP DP  RH WIND       PRES   REMARKS
GRAND FORKS    CLOUDY    32  29  88 W8        29.61F WCI  25
GRND FORKS AFB MOCLDY    31  28  87 W7        29.61F WCI  25
GRND FORKS NWS   N/A     30 N/A N/A MISG        N/A
BUXTON         NOT AVBL
DEVILS LAKE    FAIR      20  15  81 W15       29.65R WCI   6
FARGO          CLOUDY    34  29  82 SW6       29.63S
WAHPETON ARPT  NOT AVBL
$$

 *****  WEATHER ACROSS CENTRAL AND WESTERN NORTH DAKOTA  *****

CITY           SKY/WX    TMP DP  RH WIND       PRES   REMARKS
JAMESTOWN      FAIR      32  28  85 N13       29.63R WCI  22
BISMARCK       FAIR      34  27  75 N9        29.68R
MINOT          FAIR      16   9  74 NW9       29.68R WCI   4
MINOT AFB      FAIR      11   6  82 W5        29.69R WCI   3
GARRISON         N/A     20  15  81 VRB3      29.68R
WILLISTON      FAIR      13   9  84 SW3       29.69R
DICKINSON      FAIR      26  21  81 W7        29.64R WCI  18
HETTINGER      CLOUDY    31  25  78 CALM      29.66S
$$

 *****  OTHER OBSERVATIONS NORTHEAST NORTH DAKOTA  *****

CITY           SKY/WX    TMP DP  RH WIND       PRES   REMARKS
WALHALLA       FAIR      21  14  73 NW15      29.64R WCI   8
LANGDON        FAIR      16  14  93 NW17G24   29.60R WCI   0
CAVALIER       FAIR      25  18  74 NW10      29.63R WCI  15
GRAFTON        FAIR      28  25  86 W13       29.64S WCI  18
CANDO          FAIR      16  14  93 NW15      29.66R WCI   1
FORT TOTTEN      N/A     21  15  78 W7        29.95S WCI  12
ROLLA          FAIR      10   9  92 CALM      29.62R
RUGBY          FAIR      12   9  85 W8        29.67R WCI   1
 ***** THE ABOVE OBSERVATIONS ARE NON NWS ARE NOT QUALITY
        CONTROLLED AND MAY MIS-REPORT RAIN FOR SNOW...
$$

 *****  OTHER OBSERVATIONS SOUTHEAST NORTH DAKOTA *****

CITY           SKY/WX    TMP DP  RH WIND       PRES   REMARKS
COOPERSTOWN    FAIR      30  28  93 NW9       29.63S WCI  22
VALLEY CITY    CLOUDY    30  30 100 NW3       29.62R
OAKES            N/A     30  28  93 MISG      29.61F
GWINNER          N/A     32  28  86 CALM      29.62S
SHEYENNE NWR     N/A     31  31  99 NW5       29.95S
BUFFALO        NOT AVBL
WYNDMERE       NOT AVBL
 ***** THE ABOVE OBSERVATIONS ARE NON NWS ARE NOT QUALITY
       CONTROLLED AND MAY MIS-REPORT RAIN FOR SNOW...
$$

  *****  WEATHER ACROSS NORTHERN MINNESOTA  *****

CITY           SKY/WX    TMP DP  RH WIND       PRES   REMARKS
FLAG ISLAND    CLOUDY    32  28  86 S8        29.57R WCI  25
WARROAD        MOCLDY    34  28  80 SW10G16   29.60R
ROSEAU         FAIR      34  28  80 SW10      29.60S
HALLOCK        FAIR      28  25  86 NW10      29.61R WCI  19
THF RVR FALLS  FAIR      32  28  85 SW10      29.62S WCI  24
HALSTAD        NOT AVBL
FOSSTON        CLOUDY    30  27  86 S10       29.63S WCI  21
BAUDETTE       CLOUDY    33  28  81 S14       29.60R WCI  23
WASKISH        CLOUDY    34  28  80 S6        29.63R
CROOKSTON      FAIR      32  28  86 SW8       29.63S WCI  25
$$
  *****  WEATHER ACROSS CENTRAL AND WEST MINNESOTA  *****

CITY           SKY/WX    TMP DP  RH WIND       PRES   REMARKS
BEMIDJI        CLOUDY    32  28  85 S7        29.65R
PARK RAPIDS    MOCLDY    32  28  85 SW7       29.66R
WADENA         FAIR      32  28  86 SE5       29.63R
DETROIT LAKES  FAIR      32  30  93 SE6       29.64F
MOORHEAD       FAIR      34  28  80 SE13      29.60F WCI  25
FERGUS FALLS   FAIR      34  28  80 SE6       29.66S
ELBOW LAKE     FAIR      32  29  90 E3        29.63R FOG
MORRIS MN      FAIR      34  28  80 SE13      29.58F WCI  25
STAPLES        FAIR      32  27  80 SE6       29.63F
WHEATON        FAIR      32  28  86 CALM      29.64R
$$
  *****  WEATHER ELSEWHERE ACROSS MINNESOTA  *****

CITY           SKY/WX    TMP DP  RH WIND       PRES   REMARKS
DULUTH         FRZ DRZL  30  29  96 S12       29.71F FOG     WCI  20
INTRNTL FALLS  CLOUDY    33  26  75 S8        29.62R HAZE
ELY            FLURRIES  30  27  86 S8        29.71R WCI  23
CLOQUET        CLOUDY    30  28  93 SE6       29.71F WCI  24
BRAINERD       CLOUDY    35  28  75 S3        29.68S
HIBBING        CLOUDY    30  26  85 SE6       29.68F WCI  24
ALEXANDRIA     FAIR      34  30  85 SE10      29.62F
SAINT CLOUD    CLOUDY    36  31  82 S9        29.68S
MINNEAPOLIS    DRIZZLE   36  34  92 S10       29.72F FOG
$$

  *****  WEATHER ACROSS SOUTH DAKOTA  *****

CITY           SKY/WX    TMP DP  RH WIND       PRES   REMARKS
SIOUX FALLS    MOCLDY    44  39  82 S9        29.58S
BROOKINGS      FAIR      35  31  85 E3        29.59R
WATERTOWN      FAIR      34  31  88 S3        29.57F
HURON          FAIR      33  30  88 N13       29.60R WCI  24
SISSETON         N/A     30  27  88 NW6       29.61R WCI  24
ABERDEEN       CLOUDY    33  29  85 E6        29.61F
MITCHELL       FAIR      37  33  85 N9        29.56S
PIERRE         CLOUDY    38  31  76 NW9       29.64F
MOBRIDGE       CLOUDY    36  32  85 CALM      29.64R
RAPID CITY     CLOUDY    35  33  92 S5        29.65F
$$

  *****  SOME WEATHER IN NEARBY STATES *****

CITY           SKY/WX    TMP DP  RH WIND       PRES   REMARKS
GLASGOW MT     FAIR      15  12  88 E8        29.61F WCI   4
GREAT FALLS MT FAIR      31  20  63 SW10      29.57S WCI  22
CHEYENNE WY    FAIR      49  30  48 W14       29.66S
SCOTTSBLUFF NE CLOUDY    41  26  55 VRB5      29.71R
OMAHA NE       CLOUDY    54  47  77 S14       29.64S
DES MOINES IA  CLOUDY    44  36  73 SE16      29.77F
DAVENPORT IA   CLOUDY    35  30  82 SE15G24   29.95F
CHICAGO IL     CLOUDY    36  30  79 S13       30.10R
EAU CLAIRE WI  CLOUDY    35  28  75 S10       29.81S
LA CROSSE WI   CLOUDY    38  30  73 S14       29.84F
$$

  *****  SOME NATIONAL WEATHER *****

CITY           SKY/WX    TMP DP  RH WIND       PRES   REMARKS
LA GUARDIA NY  FAIR      43  28  55 NW25G33   30.05R
RALEIGH NC     FAIR      42  30  62 VRB6      30.26R
ATLANTA GA     FAIR      50  38  63 E7        30.20R
NEW ORLEANS LA FAIR      66  62  87 E5        30.15S FOG
OKLAHOMA CITY  CLOUDY    63  60  90 S21       29.79F
ALBUQUERQUE NM MOCLDY    48  19  31 SE8       30.08R
SALT LAKE CITY RAIN      43  40  89 N15       29.81R FOG
LOS ANGELES CA CLOUDY    65  59  81 CALM      30.01R
BOISE ID       CLOUDY    41  32  70 NW10G17   29.84R
SEATTLE WA     CLOUDY    42  38  85 S8        29.90R
$$

*** WEATHER ACROSS MANITOBA...SASKATCHEWAN AND ONTARIO ***
                ***ONTARIO***

CITY           SKY/WX    TMP DP  RH WIND       PRES   REMARKS
GERALDTON      LGT SNOW  21  19  93 SE14G22   29.85F DRFTSNOWWCI   8
THUNDER BAY    FLURRIES  36  30  80 S8G18     29.80F
SIOUX LOOKOUT  LGT SNOW  30  28  93 S12G22    29.58R BLWGSNOWWCI  21
TORONTO        PTSUNNY   28  19  69 N6        30.27S WCI  22
BIG TROUT LK   SNOW      16  16 100 S25G32    29.52F VSB 1/2 WCI  -3
PICKLE LAKE    LGT SNOW  25  23  93 S16G25    29.54F DRFTSNOWWCI  12
DRYDEN         FLURRIES  30  28  93 S14G24    29.56S WCI  20
KENORA         FLURRIES  30  28  93 SW17G26   29.54S WCI  18
$$
                *** MANITOBA***

CITY           SKY/WX    TMP DP  RH WIND       PRES   REMARKS
BRANDON        PTCLDY     7   3  85 W9        29.62R WCI  -7
DAUPHIN        CLEAR     14   9  79 W17G23    29.59R WCI  -3
ISLAND LAKE    LGT SNOW  25  23  93 S6        29.24F WCI  18
PILOT MOUND      N/A     12   7  79 W7          N/A  WCI   2
THE PAS        NOT AVBL
THOMPSON       LGT SNOW  12   9  85 NW7       29.28R WCI   2
WINNIPEG       PTCLDY    16  10  79 W10       29.61R WCI   3
LYNN LAKE      FLURRIES   5   1  85 NW7       29.35S WCI  -7
CHURCHILL      LGT SNOW  12  10  92 SE17G24   29.42F VSB 3/4 WCI  -5
$$
                ***SASKATCHEWAN***

CITY           SKY/WX    TMP DP  RH WIND       PRES   REMARKS
ESTEVAN        LGT SNOW  10   7  85 NW9       29.65S FOG     WCI  -2
KINDERSLEY     CLOUDY     1  -2  85 W9        29.63R WCI -14
LLOYDMINSTER   PTCLDY     0  -2  92 W7        29.59R WCI -13
PRINCE ALBERT  FLURRIES  12   5  73 W6        29.62S WCI   3
REGINA         FLURRIES   9   5  85 W8        29.63S WCI  -4
YORKTON        CLEAR      9   3  78 W12       29.61R WCI  -6
N. BATTLEFORD  CLOUDY     5   0  78 W5        29.65S WC



USA.gov is the U.S. government's official web portal to all federal, state and local government web resources and services.